Time,TemperatureF,DewpointF,PressureIn,WindDirection,WindDirectionDegrees,WindSpeedMPH,WindSpeedGustMPH,Humidity,HourlyPrecipIn,Conditions,Clouds,dailyrainin,SoftwareType,DateUTC
2013-03-10 00:04:00,32.0,30.0,29.76,North,0,1.0,1.0,94,0.00,,,0.00,Meteo,2013-03-10 06:04:00,
2013-03-10 00:09:00,32.0,30.0,29.76,North,0,0.0,0.0,94,0.00,,,0.00,Meteo,2013-03-10 06:09:00,
2013-03-10 00:14:00,32.0,30.0,29.76,North,0,0.0,0.0,94,0.00,,,0.00,Meteo,2013-03-10 06:14:00,
2013-03-10 00:19:00,32.0,30.0,29.77,North,0,0.0,0.0,94,0.00,,,0.00,Meteo,2013-03-10 06:19:00,
2013-03-10 00:24:00,32.0,30.0,29.76,North,0,0.0,0.0,94,0.00,,,0.00,Meteo,2013-03-10 06:24:00,
2013-03-10 00:29:00,32.0,30.0,29.77,North,0,0.0,0.0,94,0.00,,,0.00,Meteo,2013-03-10 06:29:00,
2013-03-10 00:34:00,32.0,30.0,29.76,North,0,0.0,0.0,94,0.00,,,0.00,Meteo,2013-03-10 06:34:00,
2013-03-10 00:39:00,32.0,30.0,29.76,North,0,0.0,0.0,94,0.00,,,0.00,Meteo,2013-03-10 06:39:00,
2013-03-10 00:44:00,32.0,30.0,29.76,North,0,0.0,0.0,94,0.00,,,0.00,Meteo,2013-03-10 06:44:00,
2013-03-10 00:49:00,32.0,30.0,29.76,North,0,0.0,0.0,94,0.00,,,0.00,Meteo,2013-03-10 06:49:00,
2013-03-10 00:54:00,32.0,30.0,29.76,North,0,0.0,0.0,94,0.00,,,0.00,Meteo,2013-03-10 06:54:00,
2013-03-10 00:59:00,32.0,30.0,29.77,North,0,0.0,0.0,94,0.00,,,0.00,Meteo,2013-03-10 06:59:00,
2013-03-10 01:04:00,32.0,30.0,29.77,North,0,0.0,0.0,94,0.00,,,0.00,Meteo,2013-03-10 07:04:00,
2013-03-10 01:09:00,32.0,30.0,29.77,North,0,0.0,0.0,94,0.00,,,0.00,Meteo,2013-03-10 07:09:00,
2013-03-10 01:14:00,32.0,30.0,29.77,North,0,0.0,0.0,94,0.00,,,0.00,Meteo,2013-03-10 07:14:00,
2013-03-10 01:19:00,32.0,30.0,29.77,North,0,0.0,0.0,94,0.00,,,0.00,Meteo,2013-03-10 07:19:00,
2013-03-10 01:24:00,32.0,30.0,29.77,North,0,0.0,0.0,94,0.00,,,0.00,Meteo,2013-03-10 07:24:00,
2013-03-10 01:29:00,32.0,30.0,29.77,North,0,0.0,0.0,93,0.00,,,0.00,Meteo,2013-03-10 07:29:00,
2013-03-10 01:34:00,32.0,30.0,29.78,North,0,0.0,0.0,94,0.00,,,0.00,Meteo,2013-03-10 07:34:00,
2013-03-10 01:39:00,32.0,30.0,29.78,North,0,0.0,0.0,94,0.00,,,0.00,Meteo,2013-03-10 07:39:00,
2013-03-10 01:44:00,32.0,30.0,29.78,North,0,0.0,0.0,94,0.00,,,0.00,Meteo,2013-03-10 07:44:00,
2013-03-10 01:49:00,32.0,30.0,29.78,North,0,0.0,0.0,94,0.00,,,0.00,Meteo,2013-03-10 07:49:00,
2013-03-10 01:54:00,32.0,30.0,29.78,North,0,0.0,0.0,94,0.00,,,0.00,Meteo,2013-03-10 07:54:00,
2013-03-10 01:59:00,32.0,30.0,29.77,North,0,0.0,0.0,94,0.00,,,0.00,Meteo,2013-03-10 07:59:00,
2013-03-10 03:04:00,32.0,30.0,29.77,North,0,0.0,0.0,94,0.00,,,0.00,Meteo,2013-03-10 08:04:00,
2013-03-10 03:09:00,32.0,30.0,29.77,North,0,0.0,0.0,94,0.00,,,0.00,Meteo,2013-03-10 08:09:00,
2013-03-10 03:14:00,32.0,30.0,29.78,North,0,0.0,1.0,94,0.00,,,0.00,Meteo,2013-03-10 08:14:00,
2013-03-10 03:19:00,33.0,31.0,29.77,North,0,1.0,2.0,94,0.00,,,0.00,Meteo,2013-03-10 08:19:00,
2013-03-10 03:24:00,33.0,31.0,29.77,North,0,0.0,0.0,94,0.00,,,0.00,Meteo,2013-03-10 08:24:00,
2013-03-10 03:29:00,33.0,31.0,29.78,North,0,1.0,1.0,94,0.00,,,0.00,Meteo,2013-03-10 08:29:00,
2013-03-10 03:34:00,33.0,31.0,29.77,North,0,0.0,0.0,94,0.00,,,0.00,Meteo,2013-03-10 08:34:00,
2013-03-10 03:39:00,33.0,31.0,29.78,North,0,0.0,0.0,94,0.00,,,0.00,Meteo,2013-03-10 08:39:00,
2013-03-10 03:44:00,33.0,31.0,29.78,WNW,290,1.0,2.0,94,0.00,,,0.00,Meteo,2013-03-10 08:44:00,
2013-03-10 03:49:00,33.0,31.0,29.78,North,0,0.0,0.0,94,0.00,,,0.00,Meteo,2013-03-10 08:49:00,
2013-03-10 03:54:00,33.0,31.0,29.78,North,0,0.0,0.0,94,0.00,,,0.00,Meteo,2013-03-10 08:54:00,
2013-03-10 03:59:00,33.0,31.0,29.77,North,0,0.0,0.0,94,0.00,,,0.00,Meteo,2013-03-10 08:59:00,
2013-03-10 04:04:00,33.0,31.0,29.78,North,0,0.0,0.0,94,0.00,,,0.00,Meteo,2013-03-10 09:04:00,
2013-03-10 04:09:00,33.0,31.0,29.78,NW,322,1.0,3.0,94,0.00,,,0.00,Meteo,2013-03-10 09:09:00,
2013-03-10 04:14:00,33.0,31.0,29.78,WNW,284,1.0,2.0,94,0.00,,,0.00,Meteo,2013-03-10 09:14:00,
2013-03-10 04:19:00,33.0,31.0,29.78,North,0,0.0,0.0,94,0.00,,,0.00,Meteo,2013-03-10 09:19:00,
2013-03-10 04:24:00,33.0,31.0,29.78,North,0,0.0,0.0,94,0.00,,,0.00,Meteo,2013-03-10 09:24:00,
2013-03-10 04:29:00,33.0,31.0,29.78,NW,321,0.0,2.0,94,0.00,,,0.00,Meteo,2013-03-10 09:29:00,
2013-03-10 04:34:00,33.0,31.0,29.78,North,0,0.0,0.0,94,0.00,,,0.00,Meteo,2013-03-10 09:34:00,
2013-03-10 04:40:00,33.0,31.0,29.79,WNW,300,1.0,2.0,94,0.00,,,0.00,Meteo,2013-03-10 09:40:00,
2013-03-10 04:45:00,33.0,31.0,29.79,North,0,0.0,0.0,94,0.00,,,0.00,Meteo,2013-03-10 09:45:00,
2013-03-10 04:50:00,33.0,31.0,29.79,WNW,286,0.0,2.0,94,0.00,,,0.00,Meteo,2013-03-10 09:50:00,
2013-03-10 04:55:00,33.0,31.0,29.79,WSW,258,0.0,1.0,94,0.00,,,0.00,Meteo,2013-03-10 09:55:00,
2013-03-10 05:00:00,33.0,31.0,29.79,NW,308,2.0,3.0,94,0.00,,,0.00,Meteo,2013-03-10 10:00:00,
2013-03-10 05:05:00,33.0,31.0,29.80,NW,316,1.0,3.0,94,0.00,,,0.00,Meteo,2013-03-10 10:05:00,
2013-03-10 05:10:00,33.0,31.0,29.80,WNW,297,3.0,4.0,93,0.00,,,0.00,Meteo,2013-03-10 10:10:00,
2013-03-10 05:16:00,33.0,31.0,29.80,NW,317,2.0,3.0,93,0.00,,,0.00,Meteo,2013-03-10 10:16:00,
2013-03-10 05:21:00,33.0,31.0,29.80,NNW,331,2.0,4.0,93,0.00,,,0.00,Meteo,2013-03-10 10:21:00,
2013-03-10 05:27:00,34.0,32.0,29.80,NNW,330,3.0,5.0,92,0.00,,,0.00,Meteo,2013-03-10 10:27:00,
2013-03-10 05:32:00,34.0,32.0,29.80,NNW,342,4.0,7.0,91,0.00,,,0.00,Meteo,2013-03-10 10:32:00,
2013-03-10 05:37:00,34.0,31.0,29.81,NNW,337,2.0,3.0,90,0.00,,,0.00,Meteo,2013-03-10 10:37:00,
2013-03-10 05:42:00,34.0,31.0,29.81,NNW,346,0.0,2.0,90,0.00,,,0.00,Meteo,2013-03-10 10:42:00,
2013-03-10 05:47:00,34.0,31.0,29.81,North,353,3.0,5.0,89,0.00,,,0.00,Meteo,2013-03-10 10:47:00,
2013-03-10 05:52:00,34.0,31.0,29.82,WNW,300,1.0,3.0,89,0.00,,,0.00,Meteo,2013-03-10 10:52:00,
2013-03-10 05:57:00,34.0,31.0,29.82,NW,312,0.0,2.0,89,0.00,,,0.00,Meteo,2013-03-10 10:57:00,
2013-03-10 06:02:00,34.0,31.0,29.83,WNW,300,2.0,4.0,89,0.00,,,0.00,Meteo,2013-03-10 11:02:00,
2013-03-10 06:07:00,34.0,31.0,29.83,NNW,330,1.0,1.0,89,0.00,,,0.00,Meteo,2013-03-10 11:07:00,
2013-03-10 06:13:00,34.0,31.0,29.83,NNW,330,1.0,3.0,88,0.00,,,0.00,Meteo,2013-03-10 11:13:00,
2013-03-10 06:18:00,34.0,31.0,29.83,NW,325,2.0,3.0,88,0.00,,,0.00,Meteo,2013-03-10 11:18:00,
2013-03-10 06:23:00,34.0,31.0,29.83,NNW,327,1.0,2.0,88,0.00,,,0.00,Meteo,2013-03-10 11:23:00,
2013-03-10 06:28:00,34.0,31.0,29.83,NNW,331,3.0,5.0,88,0.00,,,0.00,Meteo,2013-03-10 11:28:00,
2013-03-10 06:33:00,34.0,31.0,29.83,NNW,348,2.0,3.0,87,0.00,,,0.00,Meteo,2013-03-10 11:33:00,
2013-03-10 06:38:00,33.0,30.0,29.83,North,360,1.0,2.0,87,0.00,,,0.00,Meteo,2013-03-10 11:38:00,
2013-03-10 06:43:00,33.0,30.0,29.83,NNW,345,1.0,2.0,87,0.00,,,0.00,Meteo,2013-03-10 11:43:00,
2013-03-10 06:48:00,33.0,30.0,29.83,NNW,346,3.0,5.0,87,0.00,,,0.00,Meteo,2013-03-10 11:48:00,
2013-03-10 06:53:00,33.0,30.0,29.83,NW,314,3.0,6.0,87,0.00,,,0.00,Meteo,2013-03-10 11:53:00,
2013-03-10 06:58:00,33.0,30.0,29.84,NW,324,4.0,6.0,87,0.00,,,0.00,Meteo,2013-03-10 11:58:00,
2013-03-10 07:03:00,33.0,29.0,29.84,NNW,331,4.0,7.0,86,0.00,,,0.00,Meteo,2013-03-10 12:03:00,
2013-03-10 07:08:00,33.0,29.0,29.83,NNW,334,4.0,6.0,86,0.00,,,0.00,Meteo,2013-03-10 12:08:00,
2013-03-10 07:13:00,33.0,29.0,29.83,NW,326,5.0,7.0,86,0.00,,,0.00,Meteo,2013-03-10 12:13:00,
2013-03-10 07:18:00,33.0,29.0,29.83,North,350,5.0,8.0,86,0.00,,,0.00,Meteo,2013-03-10 12:18:00,
2013-03-10 07:23:00,33.0,29.0,29.84,NNW,331,2.0,6.0,86,0.00,,,0.00,Meteo,2013-03-10 12:23:00,
2013-03-10 07:28:00,33.0,29.0,29.83,NNW,347,3.0,5.0,86,0.00,,,0.00,Meteo,2013-03-10 12:28:00,
2013-03-10 07:33:00,33.0,29.0,29.85,NNW,341,3.0,5.0,85,0.00,,,0.00,Meteo,2013-03-10 12:33:00,
2013-03-10 07:38:00,33.0,29.0,29.85,NW,324,2.0,4.0,85,0.00,,,0.00,Meteo,2013-03-10 12:38:00,
2013-03-10 07:43:00,33.0,29.0,29.85,North,351,4.0,6.0,85,0.00,,,0.00,Meteo,2013-03-10 12:43:00,
2013-03-10 07:48:00,33.0,29.0,29.86,NNW,328,4.0,5.0,86,0.00,,,0.00,Meteo,2013-03-10 12:48:00,
2013-03-10 07:53:00,33.0,29.0,29.86,NNW,334,3.0,6.0,85,0.00,,,0.00,Meteo,2013-03-10 12:53:00,
2013-03-10 07:58:00,33.0,29.0,29.86,NNW,339,3.0,5.0,85,0.00,,,0.00,Meteo,2013-03-10 12:58:00,
2013-03-10 08:03:00,33.0,29.0,29.87,NNW,332,2.0,6.0,85,0.00,,,0.00,Meteo,2013-03-10 13:03:00,
2013-03-10 08:08:00,33.0,29.0,29.88,NNW,347,3.0,4.0,85,0.00,,,0.00,Meteo,2013-03-10 13:08:00,
2013-03-10 08:13:00,33.0,29.0,29.88,NNW,341,3.0,5.0,85,0.00,,,0.00,Meteo,2013-03-10 13:13:00,
2013-03-10 08:18:00,33.0,29.0,29.88,NNW,337,2.0,5.0,85,0.00,,,0.00,Meteo,2013-03-10 13:18:00,
2013-03-10 08:23:00,33.0,29.0,29.88,North,354,4.0,6.0,84,0.00,,,0.00,Meteo,2013-03-10 13:23:00,
2013-03-10 08:28:00,33.0,28.0,29.87,North,355,7.0,8.0,83,0.00,,,0.00,Meteo,2013-03-10 13:28:00,
2013-03-10 08:33:00,34.0,29.0,29.88,NNW,341,6.0,9.0,83,0.00,,,0.00,Meteo,2013-03-10 13:33:00,
2013-03-10 08:38:00,34.0,29.0,29.88,NNW,348,7.0,9.0,82,0.00,,,0.00,Meteo,2013-03-10 13:38:00,
2013-03-10 08:43:00,34.0,29.0,29.88,NNW,341,8.0,11.0,82,0.00,,,0.00,Meteo,2013-03-10 13:43:00,
2013-03-10 08:48:00,34.0,29.0,29.88,NNW,343,6.0,10.0,81,0.00,,,0.00,Meteo,2013-03-10 13:48:00,
2013-03-10 08:53:00,34.0,29.0,29.88,NNW,344,7.0,10.0,81,0.00,,,0.00,Meteo,2013-03-10 13:53:00,
2013-03-10 08:58:00,34.0,28.0,29.88,NNW,345,9.0,13.0,80,0.00,,,0.00,Meteo,2013-03-10 13:58:00,
2013-03-10 09:03:00,34.0,29.0,29.88,NNW,346,8.0,12.0,81,0.00,,,0.00,Meteo,2013-03-10 14:03:00,
2013-03-10 09:08:00,34.0,28.0,29.88,North,355,4.0,6.0,80,0.00,,,0.00,Meteo,2013-03-10 14:08:00,
2013-03-10 09:13:00,34.0,29.0,29.88,NNW,343,6.0,9.0,81,0.00,,,0.00,Meteo,2013-03-10 14:13:00,
2013-03-10 09:19:00,34.0,29.0,29.89,NNW,342,5.0,8.0,81,0.00,,,0.00,Meteo,2013-03-10 14:19:00,
2013-03-10 09:24:00,34.0,28.0,29.90,NNW,343,5.0,7.0,80,0.00,,,0.00,Meteo,2013-03-10 14:24:00,
2013-03-10 09:29:00,34.0,28.0,29.91,NNW,341,5.0,7.0,80,0.00,,,0.00,Meteo,2013-03-10 14:29:00,
2013-03-10 09:34:00,34.0,28.0,29.91,NNW,344,5.0,7.0,79,0.00,,,0.00,Meteo,2013-03-10 14:34:00,
2013-03-10 09:39:00,34.0,28.0,29.92,NNW,340,4.0,7.0,79,0.00,,,0.00,Meteo,2013-03-10 14:39:00,
2013-03-10 09:44:00,34.0,28.0,29.93,NNW,340,6.0,8.0,80,0.00,,,0.00,Meteo,2013-03-10 14:44:00,
2013-03-10 09:49:00,34.0,28.0,29.93,NNW,348,5.0,7.0,79,0.00,,,0.00,Meteo,2013-03-10 14:49:00,
2013-03-10 09:54:00,34.0,28.0,29.92,North,356,5.0,8.0,79,0.00,,,0.00,Meteo,2013-03-10 14:54:00,
2013-03-10 09:59:00,34.0,28.0,29.92,NNW,344,6.0,10.0,78,0.00,,,0.00,Meteo,2013-03-10 14:59:00,
2013-03-10 10:05:00,34.0,28.0,29.93,North,359,2.0,4.0,78,0.00,,,0.00,Meteo,2013-03-10 15:05:00,
2013-03-10 10:10:00,34.0,28.0,29.93,North,354,6.0,9.0,77,0.00,,,0.00,Meteo,2013-03-10 15:10:00,
2013-03-10 10:15:00,35.0,29.0,29.92,North,357,5.0,7.0,77,0.00,,,0.00,Meteo,2013-03-10 15:15:00,
2013-03-10 10:20:00,35.0,29.0,29.93,North,354,4.0,5.0,77,0.00,,,0.00,Meteo,2013-03-10 15:20:00,
2013-03-10 10:25:00,35.0,28.0,29.94,NNW,346,6.0,10.0,76,0.00,,,0.00,Meteo,2013-03-10 15:25:00,
2013-03-10 10:30:00,35.0,28.0,29.94,North,353,7.0,10.0,75,0.00,,,0.00,Meteo,2013-03-10 15:30:00,
2013-03-10 10:35:00,35.0,28.0,29.94,NNW,334,3.0,5.0,76,0.00,,,0.00,Meteo,2013-03-10 15:35:00,
2013-03-10 10:40:00,35.0,28.0,29.94,North,352,7.0,13.0,75,0.00,,,0.00,Meteo,2013-03-10 15:40:00,
2013-03-10 10:46:00,35.0,27.0,29.94,NNW,346,7.0,11.0,73,0.00,,,0.00,Meteo,2013-03-10 15:46:00,
2013-03-10 10:51:00,35.0,27.0,29.93,North,0,5.0,9.0,73,0.00,,,0.00,Meteo,2013-03-10 15:51:00,
2013-03-10 10:56:00,35.0,27.0,29.93,North,352,6.0,9.0,73,0.00,,,0.00,Meteo,2013-03-10 15:56:00,
2013-03-10 11:01:00,35.0,28.0,29.94,NNW,341,4.0,6.0,74,0.00,,,0.00,Meteo,2013-03-10 16:01:00,
2013-03-10 11:06:00,35.0,28.0,29.93,NNW,346,5.0,9.0,74,0.00,,,0.00,Meteo,2013-03-10 16:06:00,
2013-03-10 11:11:00,35.0,28.0,29.94,North,351,5.0,7.0,74,0.00,,,0.00,Meteo,2013-03-10 16:11:00,
2013-03-10 11:16:00,35.0,28.0,29.94,North,353,5.0,8.0,74,0.00,,,0.00,Meteo,2013-03-10 16:16:00,
2013-03-10 11:21:00,35.0,28.0,29.94,North,1,6.0,10.0,74,0.00,,,0.00,Meteo,2013-03-10 16:21:00,
2013-03-10 11:26:00,35.0,28.0,29.94,North,350,5.0,8.0,75,0.00,,,0.00,Meteo,2013-03-10 16:26:00,
2013-03-10 11:31:00,35.0,28.0,29.95,North,5,4.0,6.0,75,0.00,,,0.00,Meteo,2013-03-10 16:31:00,
2013-03-10 11:36:00,35.0,28.0,29.95,North,0,4.0,7.0,75,0.00,,,0.00,Meteo,2013-03-10 16:36:00,
2013-03-10 11:41:00,35.0,28.0,29.95,NNW,348,3.0,5.0,75,0.00,,,0.00,Meteo,2013-03-10 16:41:00,
2013-03-10 11:46:00,35.0,27.0,29.95,NNW,344,7.0,11.0,73,0.00,,,0.00,Meteo,2013-03-10 16:46:00,
2013-03-10 11:51:00,35.0,28.0,29.95,North,358,6.0,9.0,74,0.00,,,0.00,Meteo,2013-03-10 16:51:00,
2013-03-10 11:56:00,35.0,28.0,29.95,North,351,6.0,8.0,74,0.00,,,0.00,Meteo,2013-03-10 16:56:00,
2013-03-10 12:01:00,35.0,28.0,29.95,NNW,344,5.0,8.0,74,0.00,,,0.00,Meteo,2013-03-10 17:01:00,
2013-03-10 12:06:00,35.0,28.0,29.96,North,350,3.0,5.0,75,0.00,,,0.00,Meteo,2013-03-10 17:06:00,
2013-03-10 12:11:00,35.0,28.0,29.97,NNW,346,5.0,8.0,75,0.00,,,0.00,Meteo,2013-03-10 17:11:00,
2013-03-10 12:16:00,35.0,28.0,29.97,North,1,4.0,6.0,75,0.00,,,0.00,Meteo,2013-03-10 17:16:00,
2013-03-10 12:21:00,35.0,28.0,29.98,NNE,29,4.0,6.0,76,0.00,,,0.00,Meteo,2013-03-10 17:21:00,
2013-03-10 12:26:00,35.0,28.0,29.98,NNE,17,5.0,9.0,74,0.00,,,0.00,Meteo,2013-03-10 17:26:00,
2013-03-10 12:31:00,35.0,28.0,29.98,North,8,3.0,7.0,74,0.00,,,0.00,Meteo,2013-03-10 17:31:00,
2013-03-10 12:36:00,35.0,27.0,29.98,NNE,26,4.0,6.0,73,0.00,,,0.00,Meteo,2013-03-10 17:36:00,
2013-03-10 12:41:00,35.0,27.0,29.98,NNE,13,5.0,6.0,73,0.00,,,0.00,Meteo,2013-03-10 17:41:00,
2013-03-10 12:46:00,35.0,28.0,29.98,North,11,4.0,7.0,74,0.00,,,0.00,Meteo,2013-03-10 17:46:00,
2013-03-10 12:51:00,34.0,27.0,29.97,North,359,3.0,4.0,75,0.00,,,0.00,Meteo,2013-03-10 17:51:00,
2013-03-10 12:56:00,35.0,27.0,29.97,North,359,4.0,6.0,73,0.00,,,0.00,Meteo,2013-03-10 17:56:00,
2013-03-10 13:01:00,35.0,27.0,29.96,NNE,22,5.0,7.0,72,0.00,,,0.00,Meteo,2013-03-10 18:01:00,
2013-03-10 13:06:00,35.0,27.0,29.96,NNE,18,4.0,5.0,72,0.00,,,0.00,Meteo,2013-03-10 18:06:00,
2013-03-10 13:11:00,35.0,27.0,29.96,NNE,29,5.0,7.0,71,0.00,,,0.00,Meteo,2013-03-10 18:11:00,
2013-03-10 13:16:00,35.0,27.0,29.96,NNE,26,3.0,6.0,72,0.00,,,0.00,Meteo,2013-03-10 18:16:00,
2013-03-10 13:22:00,35.0,27.0,29.96,NNE,29,4.0,6.0,72,0.00,,,0.00,Meteo,2013-03-10 18:22:00,
2013-03-10 13:27:00,34.0,26.0,29.96,NNE,23,5.0,6.0,73,0.00,,,0.00,Meteo,2013-03-10 18:27:00,
2013-03-10 13:32:00,34.0,26.0,29.97,North,9,4.0,6.0,73,0.00,,,0.00,Meteo,2013-03-10 18:32:00,
2013-03-10 13:37:00,34.0,26.0,29.97,North,8,3.0,5.0,73,0.00,,,0.00,Meteo,2013-03-10 18:37:00,
2013-03-10 13:42:00,34.0,27.0,29.97,NNE,21,5.0,8.0,74,0.00,,,0.00,Meteo,2013-03-10 18:42:00,
2013-03-10 13:47:00,34.0,26.0,29.97,NNE,16,5.0,12.0,73,0.00,,,0.00,Meteo,2013-03-10 18:47:00,
2013-03-10 13:52:00,34.0,26.0,29.97,North,5,5.0,7.0,72,0.00,,,0.00,Meteo,2013-03-10 18:52:00,
2013-03-10 13:57:00,34.0,26.0,29.97,NNE,23,5.0,8.0,71,0.00,,,0.00,Meteo,2013-03-10 18:57:00,
2013-03-10 14:02:00,34.0,25.0,29.97,NNE,18,5.0,8.0,70,0.00,,,0.00,Meteo,2013-03-10 19:02:00,
2013-03-10 14:07:00,34.0,26.0,29.98,NNE,14,3.0,8.0,71,0.00,,,0.00,Meteo,2013-03-10 19:07:00,
2013-03-10 14:12:00,34.0,25.0,29.98,NNE,15,5.0,8.0,70,0.00,,,0.00,Meteo,2013-03-10 19:12:00,
2013-03-10 14:17:00,34.0,25.0,29.98,NNE,25,5.0,6.0,70,0.00,,,0.00,Meteo,2013-03-10 19:17:00,
2013-03-10 14:22:00,34.0,25.0,29.98,North,3,4.0,5.0,70,0.00,,,0.00,Meteo,2013-03-10 19:22:00,
2013-03-10 14:27:00,34.0,25.0,29.97,NNE,25,5.0,8.0,70,0.00,,,0.00,Meteo,2013-03-10 19:27:00,
2013-03-10 14:32:00,34.0,26.0,29.97,NNE,28,4.0,6.0,71,0.00,,,0.00,Meteo,2013-03-10 19:32:00,
2013-03-10 14:37:00,34.0,26.0,29.96,NE,47,5.0,7.0,71,0.00,,,0.00,Meteo,2013-03-10 19:37:00,
2013-03-10 14:42:00,34.0,26.0,29.96,NNE,22,4.0,7.0,71,0.00,,,0.00,Meteo,2013-03-10 19:42:00,
2013-03-10 14:47:00,34.0,26.0,29.95,NNE,30,5.0,7.0,71,0.00,,,0.00,Meteo,2013-03-10 19:47:00,
2013-03-10 14:52:00,34.0,26.0,29.95,NNE,19,5.0,6.0,71,0.00,,,0.00,Meteo,2013-03-10 19:52:00,
2013-03-10 14:57:00,34.0,26.0,29.95,NE,38,4.0,7.0,72,0.00,,,0.00,Meteo,2013-03-10 19:57:00,
2013-03-10 15:02:00,34.0,26.0,29.95,NNE,23,6.0,7.0,71,0.00,,,0.00,Meteo,2013-03-10 20:02:00,
2013-03-10 15:07:00,33.0,25.0,29.94,NNE,23,6.0,9.0,71,0.00,,,0.00,Meteo,2013-03-10 20:07:00,
2013-03-10 15:12:00,33.0,25.0,29.94,NNE,17,5.0,7.0,71,0.00,,,0.00,Meteo,2013-03-10 20:12:00,
2013-03-10 15:18:00,33.0,25.0,29.94,NE,47,3.0,5.0,73,0.00,,,0.00,Meteo,2013-03-10 20:18:00,
2013-03-10 15:23:00,33.0,25.0,29.94,NE,49,5.0,7.0,73,0.00,,,0.00,Meteo,2013-03-10 20:23:00,
2013-03-10 15:28:00,34.0,26.0,29.94,NNE,31,3.0,4.0,73,0.00,,,0.00,Meteo,2013-03-10 20:28:00,
2013-03-10 15:34:00,33.0,25.0,29.94,NNE,21,3.0,5.0,73,0.00,,,0.00,Meteo,2013-03-10 20:34:00,
2013-03-10 15:39:00,33.0,25.0,29.94,NNE,22,4.0,6.0,73,0.00,,,0.00,Meteo,2013-03-10 20:39:00,
2013-03-10 15:44:00,33.0,26.0,29.95,North,10,3.0,4.0,74,0.00,,,0.00,Meteo,2013-03-10 20:44:00,
2013-03-10 15:49:00,33.0,26.0,29.96,NE,44,3.0,4.0,74,0.00,,,0.00,Meteo,2013-03-10 20:49:00,
2013-03-10 15:54:00,33.0,25.0,29.96,NNE,20,4.0,8.0,73,0.00,,,0.00,Meteo,2013-03-10 20:54:00,
2013-03-10 15:59:00,33.0,25.0,29.96,NE,38,5.0,6.0,72,0.00,,,0.00,Meteo,2013-03-10 20:59:00,
2013-03-10 16:04:00,33.0,25.0,29.96,NNE,20,3.0,4.0,73,0.00,,,0.00,Meteo,2013-03-10 21:04:00,
2013-03-10 16:09:00,33.0,25.0,29.97,NNE,16,4.0,5.0,73,0.00,,,0.00,Meteo,2013-03-10 21:09:00,
2013-03-10 16:14:00,33.0,25.0,29.97,NNE,25,4.0,7.0,72,0.00,,,0.00,Meteo,2013-03-10 21:14:00,
2013-03-10 16:19:00,33.0,25.0,29.98,NE,41,3.0,5.0,73,0.00,,,0.00,Meteo,2013-03-10 21:19:00,
2013-03-10 16:24:00,33.0,25.0,29.98,North,2,3.0,5.0,73,0.00,,,0.00,Meteo,2013-03-10 21:24:00,
2013-03-10 16:29:00,33.0,26.0,29.98,NNE,14,3.0,5.0,74,0.00,,,0.00,Meteo,2013-03-10 21:29:00,
2013-03-10 16:34:00,33.0,26.0,29.98,NNE,23,3.0,4.0,74,0.00,,,0.00,Meteo,2013-03-10 21:34:00,
2013-03-10 16:39:00,33.0,26.0,29.98,North,5,5.0,10.0,74,0.00,,,0.00,Meteo,2013-03-10 21:39:00,
2013-03-10 16:44:00,33.0,26.0,29.98,North,9,5.0,9.0,74,0.00,,,0.00,Meteo,2013-03-10 21:44:00,
2013-03-10 16:49:00,33.0,26.0,29.97,NNE,24,4.0,7.0,74,0.00,,,0.00,Meteo,2013-03-10 21:49:00,
2013-03-10 16:54:00,33.0,26.0,29.98,NNE,31,4.0,6.0,74,0.00,,,0.00,Meteo,2013-03-10 21:54:00,
2013-03-10 16:59:00,33.0,26.0,29.97,NNE,18,3.0,5.0,75,0.00,,,0.00,Meteo,2013-03-10 21:59:00,
2013-03-10 17:04:00,33.0,26.0,29.97,North,1,5.0,7.0,74,0.00,,,0.00,Meteo,2013-03-10 22:04:00,
2013-03-10 17:09:00,33.0,26.0,29.97,North,9,6.0,8.0,75,0.00,,,0.00,Meteo,2013-03-10 22:09:00,
2013-03-10 17:15:00,32.0,25.0,29.96,NNE,22,4.0,6.0,76,0.00,,,0.00,Meteo,2013-03-10 22:15:00,
2013-03-10 17:20:00,32.0,25.0,29.96,NNE,19,4.0,6.0,76,0.00,,,0.00,Meteo,2013-03-10 22:20:00,
2013-03-10 17:25:00,32.0,25.0,29.97,NNE,26,5.0,7.0,76,0.00,,,0.00,Meteo,2013-03-10 22:25:00,
2013-03-10 17:30:00,32.0,25.0,29.97,NNE,17,5.0,6.0,75,0.00,,,0.00,Meteo,2013-03-10 22:30:00,
2013-03-10 17:35:00,32.0,25.0,29.96,NNE,12,6.0,8.0,76,0.00,,,0.00,Meteo,2013-03-10 22:35:00,
2013-03-10 17:40:00,32.0,26.0,29.96,NNE,13,5.0,7.0,78,0.00,,,0.00,Meteo,2013-03-10 22:40:00,
2013-03-10 17:45:00,32.0,26.0,29.96,NNE,17,4.0,9.0,77,0.00,,,0.00,Meteo,2013-03-10 22:45:00,
2013-03-10 17:50:00,32.0,26.0,29.96,NNE,23,6.0,8.0,78,0.00,,,0.00,Meteo,2013-03-10 22:50:00,
2013-03-10 17:55:00,31.0,25.0,29.96,NNE,20,5.0,7.0,79,0.00,,,0.00,Meteo,2013-03-10 22:55:00,
2013-03-10 18:00:00,31.0,25.0,29.96,NNE,15,5.0,7.0,78,0.00,,,0.00,Meteo,2013-03-10 23:00:00,
2013-03-10 18:05:00,31.0,25.0,29.96,NNE,28,3.0,6.0,78,0.00,,,0.00,Meteo,2013-03-10 23:05:00,
2013-03-10 18:10:00,31.0,25.0,29.96,NNE,15,5.0,7.0,78,0.00,,,0.00,Meteo,2013-03-10 23:10:00,
2013-03-10 18:15:00,31.0,25.0,29.96,North,7,5.0,6.0,79,0.00,,,0.00,Meteo,2013-03-10 23:15:00,
2013-03-10 18:20:00,31.0,26.0,29.96,NNE,28,4.0,7.0,80,0.00,,,0.00,Meteo,2013-03-10 23:20:00,
2013-03-10 18:25:00,31.0,25.0,29.96,North,11,5.0,7.0,79,0.00,,,0.00,Meteo,2013-03-10 23:25:00,
2013-03-10 18:30:00,31.0,25.0,29.96,NNE,25,6.0,9.0,79,0.00,,,0.00,Meteo,2013-03-10 23:30:00,
2013-03-10 18:35:00,31.0,25.0,29.96,NNE,13,6.0,8.0,79,0.00,,,0.00,Meteo,2013-03-10 23:35:00,
2013-03-10 18:40:00,31.0,25.0,29.96,NNE,15,5.0,8.0,79,0.00,,,0.00,Meteo,2013-03-10 23:40:00,
2013-03-10 18:45:00,31.0,25.0,29.95,North,5,6.0,8.0,79,0.00,,,0.00,Meteo,2013-03-10 23:45:00,
2013-03-10 18:50:00,31.0,25.0,29.96,North,359,7.0,12.0,79,0.00,,,0.00,Meteo,2013-03-10 23:50:00,
2013-03-10 18:55:00,31.0,25.0,29.96,North,8,5.0,7.0,79,0.00,,,0.00,Meteo,2013-03-10 23:55:00,
2013-03-10 19:00:00,30.0,24.0,29.95,North,7,4.0,7.0,79,0.00,,,0.00,Meteo,2013-03-11 00:00:00,
2013-03-10 19:05:00,30.0,24.0,29.96,NE,36,5.0,7.0,79,0.00,,,0.00,Meteo,2013-03-11 00:05:00,
2013-03-10 19:11:00,30.0,24.0,29.95,North,6,6.0,10.0,79,0.00,,,0.00,Meteo,2013-03-11 00:11:00,
2013-03-10 19:16:00,30.0,24.0,29.95,NNE,30,7.0,10.0,79,0.00,,,0.00,Meteo,2013-03-11 00:16:00,
2013-03-10 19:21:00,30.0,24.0,29.95,NNE,33,5.0,7.0,78,0.00,,,0.00,Meteo,2013-03-11 00:21:00,
2013-03-10 19:26:00,30.0,24.0,29.96,NNE,12,4.0,5.0,78,0.00,,,0.00,Meteo,2013-03-11 00:26:00,
2013-03-10 19:31:00,30.0,24.0,29.96,NNE,14,4.0,5.0,78,0.00,,,0.00,Meteo,2013-03-11 00:31:00,
2013-03-10 19:36:00,30.0,24.0,29.97,NNE,19,4.0,6.0,77,0.00,,,0.00,Meteo,2013-03-11 00:36:00,
2013-03-10 19:41:00,30.0,24.0,29.97,NNE,16,5.0,8.0,77,0.00,,,0.00,Meteo,2013-03-11 00:41:00,
2013-03-10 19:46:00,30.0,24.0,29.98,NNE,13,5.0,6.0,78,0.00,,,0.00,Meteo,2013-03-11 00:46:00,
2013-03-10 19:51:00,30.0,24.0,29.98,NE,34,5.0,7.0,77,0.00,,,0.00,Meteo,2013-03-11 00:51:00,
2013-03-10 19:56:00,30.0,24.0,29.97,North,11,5.0,6.0,77,0.00,,,0.00,Meteo,2013-03-11 00:56:00,
2013-03-10 20:01:00,30.0,24.0,29.97,NNE,26,4.0,6.0,77,0.00,,,0.00,Meteo,2013-03-11 01:01:00,
2013-03-10 20:06:00,30.0,24.0,29.96,NNE,31,2.0,3.0,78,0.00,,,0.00,Meteo,2013-03-11 01:06:00,
2013-03-10 20:11:00,30.0,24.0,29.96,NNE,14,4.0,6.0,79,0.00,,,0.00,Meteo,2013-03-11 01:11:00,
2013-03-10 20:16:00,30.0,24.0,29.96,North,5,6.0,9.0,79,0.00,,,0.00,Meteo,2013-03-11 01:16:00,
2013-03-10 20:21:00,30.0,24.0,29.96,NE,46,6.0,10.0,78,0.00,,,0.00,Meteo,2013-03-11 01:21:00,
2013-03-10 20:26:00,30.0,24.0,29.95,NNE,15,6.0,11.0,79,0.00,,,0.00,Meteo,2013-03-11 01:26:00,
2013-03-10 20:31:00,30.0,24.0,29.95,NNE,18,3.0,5.0,79,0.00,,,0.00,Meteo,2013-03-11 01:31:00,
2013-03-10 20:36:00,30.0,24.0,29.95,NNE,32,5.0,10.0,79,0.00,,,0.00,Meteo,2013-03-11 01:36:00,
2013-03-10 20:41:00,30.0,24.0,29.95,NE,37,5.0,7.0,79,0.00,,,0.00,Meteo,2013-03-11 01:41:00,
2013-03-10 20:46:00,30.0,24.0,29.96,NNE,14,6.0,10.0,77,0.00,,,0.00,Meteo,2013-03-11 01:46:00,
2013-03-10 20:51:00,30.0,24.0,29.95,NNE,24,5.0,9.0,77,0.00,,,0.00,Meteo,2013-03-11 01:51:00,
2013-03-10 20:56:00,30.0,24.0,29.96,NNE,18,4.0,6.0,77,0.00,,,0.00,Meteo,2013-03-11 01:56:00,
2013-03-10 21:01:00,30.0,24.0,29.96,NNE,33,5.0,6.0,77,0.00,,,0.00,Meteo,2013-03-11 02:01:00,
2013-03-10 21:06:00,30.0,23.0,29.96,NE,34,4.0,6.0,76,0.00,,,0.00,Meteo,2013-03-11 02:06:00,
2013-03-10 21:11:00,30.0,23.0,29.96,NNE,29,4.0,8.0,76,0.00,,,0.00,Meteo,2013-03-11 02:11:00,
2013-03-10 21:16:00,30.0,23.0,29.97,NE,42,5.0,9.0,76,0.00,,,0.00,Meteo,2013-03-11 02:16:00,
2013-03-10 21:21:00,30.0,23.0,29.96,NE,39,5.0,9.0,76,0.00,,,0.00,Meteo,2013-03-11 02:21:00,
2013-03-10 21:26:00,30.0,23.0,29.97,NE,42,6.0,9.0,76,0.00,,,0.00,Meteo,2013-03-11 02:26:00,
2013-03-10 21:31:00,30.0,23.0,29.97,ENE,59,6.0,7.0,74,0.00,,,0.00,Meteo,2013-03-11 02:31:00,
2013-03-10 21:36:00,31.0,24.0,29.97,NE,41,4.0,6.0,74,0.00,,,0.00,Meteo,2013-03-11 02:36:00,
2013-03-10 21:41:00,31.0,24.0,29.97,ENE,58,5.0,6.0,74,0.00,,,0.00,Meteo,2013-03-11 02:41:00,
2013-03-10 21:46:00,30.0,23.0,29.97,NE,36,4.0,5.0,74,0.00,,,0.00,Meteo,2013-03-11 02:46:00,
2013-03-10 21:51:00,30.0,23.0,29.97,NNE,33,7.0,10.0,74,0.00,,,0.00,Meteo,2013-03-11 02:51:00,
2013-03-10 21:56:00,30.0,23.0,29.98,NE,56,3.0,6.0,74,0.00,,,0.00,Meteo,2013-03-11 02:56:00,
2013-03-10 22:01:00,31.0,24.0,29.98,NE,49,6.0,11.0,75,0.00,,,0.00,Meteo,2013-03-11 03:01:00,
2013-03-10 22:06:00,31.0,23.0,29.97,NE,39,3.0,5.0,73,0.00,,,0.00,Meteo,2013-03-11 03:06:00,
2013-03-10 22:11:00,31.0,23.0,29.97,NE,46,7.0,10.0,73,0.00,,,0.00,Meteo,2013-03-11 03:11:00,
2013-03-10 22:16:00,31.0,23.0,29.97,NE,46,5.0,8.0,73,0.00,,,0.00,Meteo,2013-03-11 03:16:00,
2013-03-10 22:21:00,31.0,24.0,29.97,NE,42,5.0,8.0,74,0.00,,,0.00,Meteo,2013-03-11 03:21:00,
2013-03-10 22:26:00,30.0,23.0,29.97,NNE,30,7.0,14.0,74,0.00,,,0.00,Meteo,2013-03-11 03:26:00,
2013-03-10 22:31:00,30.0,23.0,29.96,NE,46,7.0,11.0,75,0.00,,,0.00,Meteo,2013-03-11 03:31:00,
2013-03-10 22:36:00,30.0,23.0,29.96,NE,41,5.0,8.0,75,0.00,,,0.00,Meteo,2013-03-11 03:36:00,
2013-03-10 22:41:00,30.0,23.0,29.96,NE,39,6.0,9.0,76,0.00,,,0.00,Meteo,2013-03-11 03:41:00,
2013-03-10 22:46:00,30.0,23.0,29.96,NE,42,6.0,9.0,75,0.00,,,0.00,Meteo,2013-03-11 03:46:00,
2013-03-10 22:51:00,30.0,23.0,29.95,ENE,58,9.0,17.0,75,0.00,,,0.00,Meteo,2013-03-11 03:51:00,
2013-03-10 22:56:00,30.0,23.0,29.95,NE,45,6.0,12.0,75,0.00,,,0.00,Meteo,2013-03-11 03:56:00,
2013-03-10 23:00:00,30.0,22.0,29.94,NNE,22,6.0,9.0,73,0.00,,,0.00,Meteo,2013-03-11 04:00:00,
2013-03-10 23:02:00,30.0,22.0,29.94,NE,51,7.0,11.0,73,0.00,,,0.00,Meteo,2013-03-11 04:02:00,
2013-03-10 23:07:00,30.0,22.0,29.94,NNE,31,7.0,13.0,73,0.00,,,0.00,Meteo,2013-03-11 04:07:00,
2013-03-10 23:12:00,30.0,22.0,29.94,NE,39,6.0,7.0,72,0.00,,,0.00,Meteo,2013-03-11 04:12:00,
2013-03-10 23:17:00,30.0,22.0,29.94,NE,35,8.0,11.0,71,0.00,,,0.00,Meteo,2013-03-11 04:17:00,
2013-03-10 23:22:00,30.0,22.0,29.94,NNE,33,5.0,7.0,71,0.00,,,0.00,Meteo,2013-03-11 04:22:00,
2013-03-10 23:27:00,30.0,22.0,29.93,NNE,30,5.0,6.0,71,0.00,,,0.00,Meteo,2013-03-11 04:27:00,
2013-03-10 23:32:00,30.0,22.0,29.93,NE,39,6.0,9.0,72,0.00,,,0.00,Meteo,2013-03-11 04:32:00,
2013-03-10 23:37:00,30.0,22.0,29.93,NE,41,5.0,8.0,72,0.00,,,0.00,Meteo,2013-03-11 04:37:00,
2013-03-10 23:42:00,30.0,22.0,29.92,NE,41,7.0,10.0,71,0.00,,,0.00,Meteo,2013-03-11 04:42:00,
2013-03-10 23:47:00,30.0,22.0,29.92,NE,43,8.0,11.0,71,0.00,,,0.00,Meteo,2013-03-11 04:47:00,
2013-03-10 23:52:00,30.0,22.0,29.92,NE,44,5.0,11.0,72,0.00,,,0.00,Meteo,2013-03-11 04:52:00,
2013-03-10 23:57:00,30.0,22.0,29.91,NNE,24,3.0,5.0,73,0.00,,,0.00,Meteo,2013-03-11 04:57:00,